Time,TemperatureF,DewpointF,PressureIn,WindDirection,WindDirectionDegrees,WindSpeedMPH,WindSpeedGustMPH,Humidity,HourlyPrecipIn,Conditions,Clouds,dailyrainin,SoftwareType,DateUTC
2013-01-11 00:12:00,19.4,18.0,29.96,NW,311,4.0,8.0,94,0.00,,,0.00,weatherlink.com 1.10,2013-01-11 08:12:00,
2013-01-11 00:27:00,19.0,17.0,29.96,WNW,298,9.0,12.0,93,0.00,,,0.00,weatherlink.com 1.10,2013-01-11 08:27:00,
2013-01-11 00:42:00,18.9,18.0,29.95,WNW,291,7.0,13.0,94,0.00,,,0.00,weatherlink.com 1.10,2013-01-11 08:42:00,
2013-01-11 00:57:00,18.7,17.0,29.95,WNW,301,7.0,11.0,94,0.00,,,0.00,weatherlink.com 1.10,2013-01-11 08:57:00,
2013-01-11 01:12:00,18.5,17.0,29.96,WNW,289,11.0,13.0,94,0.00,,,0.00,weatherlink.com 1.10,2013-01-11 09:12:00,
2013-01-11 01:28:00,18.3,17.0,29.97,WNW,296,10.0,12.0,94,0.00,,,0.00,weatherlink.com 1.10,2013-01-11 09:28:00,
2013-01-11 01:42:00,18.3,17.0,29.97,West,281,7.0,14.0,94,0.00,,,0.00,weatherlink.com 1.10,2013-01-11 09:42:00,
2013-01-11 01:57:00,18.2,17.0,29.98,WNW,287,8.0,12.0,94,0.00,,,0.00,weatherlink.com 1.10,2013-01-11 09:57:00,
2013-01-11 02:12:00,18.2,17.0,29.98,WNW,291,8.0,9.0,94,0.00,,,0.00,weatherlink.com 1.10,2013-01-11 10:12:00,
2013-01-11 02:27:00,18.1,17.0,29.98,NW,309,8.0,10.0,94,0.00,,,0.00,weatherlink.com 1.10,2013-01-11 10:27:00,
2013-01-11 02:42:00,17.9,17.0,29.99,WNW,291,6.0,8.0,94,0.00,,,0.00,weatherlink.com 1.10,2013-01-11 10:42:00,
2013-01-11 02:57:00,17.9,17.0,29.99,WNW,290,6.0,10.0,94,0.00,,,0.00,weatherlink.com 1.10,2013-01-11 10:57:00,
2013-01-11 03:12:00,17.8,16.0,29.99,WNW,295,6.0,11.0,94,0.00,,,0.00,weatherlink.com 1.10,2013-01-11 11:12:00,
2013-01-11 03:27:00,17.8,16.0,30.00,West,277,8.0,10.0,94,0.00,,,0.00,weatherlink.com 1.10,2013-01-11 11:27:00,
2013-01-11 03:42:00,17.8,16.0,30.00,WNW,290,6.0,10.0,94,0.00,,,0.00,weatherlink.com 1.10,2013-01-11 11:42:00,
2013-01-11 04:12:00,17.6,16.0,30.01,WNW,300,7.0,10.0,94,0.00,,,0.00,weatherlink.com 1.10,2013-01-11 12:12:00,
2013-01-11 04:27:00,17.4,16.0,30.01,NW,311,6.0,10.0,94,0.00,,,0.00,weatherlink.com 1.10,2013-01-11 12:27:00,
2013-01-11 04:42:00,17.4,16.0,30.02,WNW,297,5.0,10.0,95,0.00,,,0.00,weatherlink.com 1.10,2013-01-11 12:42:00,
2013-01-11 04:57:00,17.3,16.0,30.02,NW,307,5.0,9.0,94,0.00,,,0.00,weatherlink.com 1.10,2013-01-11 12:57:00,
2013-01-11 05:13:00,17.3,16.0,30.03,WNW,287,5.0,8.0,95,0.00,,,0.00,weatherlink.com 1.10,2013-01-11 13:13:00,
2013-01-11 05:28:00,17.3,16.0,30.04,WNW,302,5.0,8.0,95,0.00,,,0.00,weatherlink.com 1.10,2013-01-11 13:28:00,
2013-01-11 05:43:00,17.3,16.0,30.04,WNW,293,6.0,9.0,95,0.00,,,0.00,weatherlink.com 1.10,2013-01-11 13:43:00,
2013-01-11 05:58:00,17.5,16.0,30.05,WNW,297,7.0,10.0,95,0.00,,,0.00,weatherlink.com 1.10,2013-01-11 13:58:00,
2013-01-11 06:13:00,17.5,16.0,30.06,WNW,296,4.0,10.0,95,0.00,,,0.00,weatherlink.com 1.10,2013-01-11 14:13:00,
2013-01-11 06:28:00,17.4,16.0,30.07,NW,308,5.0,10.0,95,0.00,,,0.00,weatherlink.com 1.10,2013-01-11 14:28:00,
2013-01-11 06:43:00,17.1,16.0,30.08,WNW,289,8.0,9.0,94,0.00,,,0.00,weatherlink.com 1.10,2013-01-11 14:43:00,
2013-01-11 06:58:00,16.9,16.0,30.09,WNW,293,6.0,10.0,94,0.00,,,0.00,weatherlink.com 1.10,2013-01-11 14:58:00,
2013-01-11 07:13:00,16.6,15.0,30.09,WNW,297,9.0,9.0,94,0.00,,,0.00,weatherlink.com 1.10,2013-01-11 15:13:00,
2013-01-11 07:28:00,16.3,15.0,30.10,WNW,301,8.0,10.0,94,0.00,,,0.00,weatherlink.com 1.10,2013-01-11 15:28:00,
2013-01-11 07:43:00,16.6,16.0,30.11,NW,325,7.0,9.0,95,0.00,,,0.00,weatherlink.com 1.10,2013-01-11 15:43:00,
2013-01-11 07:58:00,16.8,16.0,30.12,NW,311,6.0,11.0,95,0.00,,,0.00,weatherlink.com 1.10,2013-01-11 15:58:00,
2013-01-11 08:13:00,16.5,15.0,30.13,NW,326,5.0,9.0,94,0.00,,,0.00,weatherlink.com 1.10,2013-01-11 16:13:00,
2013-01-11 08:28:00,16.5,15.0,30.13,NW,316,8.0,9.0,94,0.00,,,0.00,weatherlink.com 1.10,2013-01-11 16:28:00,
2013-01-11 08:43:00,16.6,15.0,30.14,NNW,332,7.0,10.0,94,0.00,,,0.00,weatherlink.com 1.10,2013-01-11 16:43:00,
2013-01-11 08:58:00,16.5,15.0,30.15,WNW,297,5.0,8.0,94,0.00,,,0.00,weatherlink.com 1.10,2013-01-11 16:58:00,
2013-01-11 09:13:00,16.4,15.0,30.15,WNW,295,4.0,9.0,94,0.00,,,0.00,weatherlink.com 1.10,2013-01-11 17:13:00,
2013-01-11 09:28:00,16.1,15.0,30.16,NW,316,4.0,7.0,93,0.00,,,0.00,weatherlink.com 1.10,2013-01-11 17:28:00,
2013-01-11 09:43:00,15.8,14.0,30.17,WNW,297,3.0,7.0,93,0.00,,,0.00,weatherlink.com 1.10,2013-01-11 17:43:00,
2013-01-11 09:58:00,15.3,14.0,30.17,WNW,293,4.0,5.0,94,0.00,,,0.00,weatherlink.com 1.10,2013-01-11 17:58:00,
2013-01-11 10:13:00,15.5,14.0,30.18,West,281,1.0,5.0,93,0.00,,,0.00,weatherlink.com 1.10,2013-01-11 18:13:00,
2013-01-11 10:28:00,16.7,15.0,30.19,West,274,1.0,5.0,94,0.00,,,0.00,weatherlink.com 1.10,2013-01-11 18:28:00,
2013-01-11 10:43:00,16.9,15.0,30.19,WNW,291,5.0,6.0,93,0.00,,,0.00,weatherlink.com 1.10,2013-01-11 18:43:00,
2013-01-11 10:58:00,17.5,16.0,30.19,WNW,288,6.0,8.0,94,0.00,,,0.00,weatherlink.com 1.10,2013-01-11 18:58:00,
2013-01-11 11:13:00,17.8,16.0,30.20,WNW,286,3.0,9.0,93,0.00,,,0.00,weatherlink.com 1.10,2013-01-11 19:13:00,
2013-01-11 11:28:00,18.4,17.0,30.20,WNW,283,4.0,9.0,93,0.00,,,0.00,weatherlink.com 1.10,2013-01-11 19:28:00,
2013-01-11 11:43:00,18.6,17.0,30.20,WNW,295,5.0,8.0,93,0.00,,,0.00,weatherlink.com 1.10,2013-01-11 19:43:00,
2013-01-11 11:58:00,18.6,17.0,30.19,WNW,291,6.0,7.0,93,0.00,,,0.00,weatherlink.com 1.10,2013-01-11 19:58:00,
2013-01-11 12:13:00,18.4,17.0,30.20,WNW,295,6.0,7.0,93,0.00,,,0.00,weatherlink.com 1.10,2013-01-11 20:13:00,
2013-01-11 12:29:00,19.3,17.0,30.20,West,280,5.0,6.0,92,0.00,,,0.00,weatherlink.com 1.10,2013-01-11 20:29:00,
2013-01-11 12:44:00,19.3,18.0,30.21,WNW,283,4.0,8.0,93,0.00,,,0.00,weatherlink.com 1.10,2013-01-11 20:44:00,
2013-01-11 12:59:00,19.1,17.0,30.21,WNW,295,4.0,7.0,92,0.00,,,0.00,weatherlink.com 1.10,2013-01-11 20:59:00,
2013-01-11 13:14:00,19.0,17.0,30.22,West,274,4.0,7.0,93,0.00,,,0.00,weatherlink.com 1.10,2013-01-11 21:14:00,
2013-01-11 13:29:00,19.1,17.0,30.23,West,278,4.0,5.0,92,0.00,,,0.00,weatherlink.com 1.10,2013-01-11 21:29:00,
2013-01-11 13:44:00,19.2,18.0,30.23,West,281,5.0,8.0,93,0.00,,,0.00,weatherlink.com 1.10,2013-01-11 21:44:00,
2013-01-11 13:59:00,19.0,17.0,30.24,WNW,283,2.0,6.0,92,0.00,,,0.00,weatherlink.com 1.10,2013-01-11 21:59:00,
2013-01-11 14:14:00,19.0,17.0,30.25,WNW,285,1.0,6.0,92,0.00,,,0.00,weatherlink.com 1.10,2013-01-11 22:14:00,
2013-01-11 14:29:00,18.3,16.0,30.25,WNW,297,3.0,5.0,92,0.00,,,0.00,weatherlink.com 1.10,2013-01-11 22:29:00,
2013-01-11 14:44:00,17.1,15.0,30.26,WNW,289,2.0,5.0,92,0.00,,,0.00,weatherlink.com 1.10,2013-01-11 22:44:00,
2013-01-11 14:59:00,16.9,15.0,30.27,WNW,291,2.0,3.0,92,0.00,,,0.00,weatherlink.com 1.10,2013-01-11 22:59:00,
2013-01-11 15:14:00,17.5,16.0,30.27,West,275,5.0,7.0,95,0.00,,,0.00,weatherlink.com 1.10,2013-01-11 23:14:00,
2013-01-11 15:29:00,17.8,16.0,30.28,West,276,5.0,5.0,94,0.00,,,0.00,weatherlink.com 1.10,2013-01-11 23:29:00,
2013-01-11 15:44:00,17.3,16.0,30.29,WNW,296,4.0,5.0,93,0.00,,,0.00,weatherlink.com 1.10,2013-01-11 23:44:00,
2013-01-11 15:59:00,17.9,17.0,30.29,West,280,4.0,7.0,95,0.00,,,0.00,weatherlink.com 1.10,2013-01-11 23:59:00,
2013-01-11 16:14:00,18.5,17.0,30.30,NW,312,7.0,9.0,95,0.00,,,0.00,weatherlink.com 1.10,2013-01-12 00:14:00,
2013-01-11 16:29:00,18.4,17.0,30.30,WNW,291,4.0,7.0,95,0.00,,,0.00,weatherlink.com 1.10,2013-01-12 00:29:00,
2013-01-11 16:44:00,17.7,16.0,30.30,NW,307,6.0,6.0,94,0.00,,,0.00,weatherlink.com 1.10,2013-01-12 00:44:00,
2013-01-11 16:59:00,16.8,15.0,30.31,West,278,2.0,6.0,94,0.00,,,0.00,weatherlink.com 1.10,2013-01-12 00:59:00,
2013-01-11 17:14:00,16.0,15.0,30.31,NW,304,3.0,5.0,94,0.00,,,0.00,weatherlink.com 1.10,2013-01-12 01:14:00,
2013-01-11 17:29:00,15.1,14.0,30.32,NW,307,4.0,5.0,94,0.00,,,0.00,weatherlink.com 1.10,2013-01-12 01:29:00,
2013-01-11 17:44:00,15.0,14.0,30.32,NW,307,3.0,4.0,94,0.00,,,0.00,weatherlink.com 1.10,2013-01-12 01:44:00,
2013-01-11 17:59:00,14.7,13.0,30.32,WNW,300,2.0,5.0,93,0.00,,,0.00,weatherlink.com 1.10,2013-01-12 01:59:00,
2013-01-11 18:14:00,15.0,14.0,30.33,NW,313,3.0,4.0,94,0.00,,,0.00,weatherlink.com 1.10,2013-01-12 02:14:00,
2013-01-11 18:29:00,15.0,14.0,30.33,WNW,301,3.0,7.0,95,0.00,,,0.00,weatherlink.com 1.10,2013-01-12 02:29:00,
2013-01-11 18:44:00,16.1,15.0,30.33,NW,304,4.0,6.0,95,0.00,,,0.00,weatherlink.com 1.10,2013-01-12 02:44:00,
2013-01-11 18:59:00,13.9,12.0,30.33,NW,305,4.0,5.0,92,0.00,,,0.00,weatherlink.com 1.10,2013-01-12 02:59:00,
2013-01-11 19:14:00,12.4,11.0,30.34,NW,304,3.0,5.0,93,0.00,,,0.00,weatherlink.com 1.10,2013-01-12 03:14:00,
2013-01-11 19:29:00,11.2,9.0,30.34,West,271,0.0,1.0,92,0.00,,,0.00,weatherlink.com 1.10,2013-01-12 03:29:00,
2013-01-11 19:45:00,14.2,13.0,30.35,NW,315,2.0,4.0,96,0.00,,,0.00,weatherlink.com 1.10,2013-01-12 03:45:00,
2013-01-11 20:00:00,15.3,14.0,30.35,WNW,291,2.0,6.0,95,0.00,,,0.00,weatherlink.com 1.10,2013-01-12 04:00:00,
2013-01-11 20:15:00,15.4,14.0,30.35,WNW,293,4.0,6.0,94,0.00,,,0.00,weatherlink.com 1.10,2013-01-12 04:15:00,
2013-01-11 20:30:00,14.4,13.0,30.36,WNW,293,2.0,5.0,93,0.00,,,0.00,weatherlink.com 1.10,2013-01-12 04:30:00,
2013-01-11 20:45:00,13.0,11.0,30.36,WNW,293,0.0,1.0,92,0.00,,,0.00,weatherlink.com 1.10,2013-01-12 04:45:00,
2013-01-11 21:15:00,10.5,9.0,30.36,SSW,204,0.0,0.0,92,0.00,,,0.00,weatherlink.com 1.10,2013-01-12 05:15:00,
2013-01-11 21:30:00,9.2,7.0,30.37,NNE,18,1.0,1.0,90,0.00,,,0.00,weatherlink.com 1.10,2013-01-12 05:30:00,
2013-01-11 21:45:00,7.7,5.0,30.37,NNE,21,0.0,2.0,90,0.00,,,0.00,weatherlink.com 1.10,2013-01-12 05:45:00,
2013-01-11 22:00:00,6.4,4.0,30.37,West,259,0.0,1.0,90,0.00,,,0.00,weatherlink.com 1.10,2013-01-12 06:00:00,
2013-01-11 22:15:00,7.3,6.0,30.38,NNW,338,1.0,1.0,92,0.00,,,0.00,weatherlink.com 1.10,2013-01-12 06:15:00,
2013-01-11 22:30:00,9.1,8.0,30.38,North,9,1.0,2.0,94,0.00,,,0.00,weatherlink.com 1.10,2013-01-12 06:30:00,
2013-01-11 22:45:00,11.3,10.0,30.38,North,8,2.0,2.0,94,0.00,,,0.00,weatherlink.com 1.10,2013-01-12 06:45:00,
2013-01-11 23:00:00,12.7,11.0,30.37,North,352,1.0,1.0,94,0.00,,,0.00,weatherlink.com 1.10,2013-01-12 07:00:00,
2013-01-11 23:15:00,13.9,13.0,30.37,North,1,1.0,2.0,94,0.00,,,0.00,weatherlink.com 1.10,2013-01-12 07:15:00,
2013-01-11 23:30:00,12.2,10.0,30.37,WSW,240,0.0,1.0,91,0.00,,,0.00,weatherlink.com 1.10,2013-01-12 07:30:00,
2013-01-11 23:45:00,11.6,10.0,30.38,SSE,165,0.0,0.0,93,0.00,,,0.00,weatherlink.com 1.10,2013-01-12 07:45:00,